Wind_Speed
12 13 11 11 10 9 12 13 5 7 15 9 6 7 5 3 10 10 8 5 10 14 7 7 6 8 6 5 7 4 6 6 11 18 20 6 7 12 11 4 8 12 12 18
7 9 10 10 10 12 16 7 8 7 23 6 10 6 11 15 9 9 6 8 10 4 9 7 13 7 2 10 7 3 4 5 8 10 4 4 6 10 13 14 11 19 13 13
3 3 6 9 10 12 15 7 3 8 22 14 7 12 13 10 11 19 18 13 11 7 9 11 9 7 5 8 13 5 1 8 12 11 18 18 22 22 17 15 9 17 18 25
3 4 4 5 9 12 19 10 4 7 4 11 12 5 3 14 7 14 8 12 16 12 11 15 18 17 17 11 8 6 5 9 12 19 22 22 23 22 20 16 19 18 26 25
5 4 4 6 8 10 15 6 4 4 6 11 10 10 6 14 13 6 10 19 16 17 23 20 13 9 8 8 8 8 6 7 11 17 17 11 16 20 19 18 18 17 16 22
6 6 5 5 5 10 8 8 12 9 5 7 7 10 7 12 23 25 28 24 14 20 22 27 30 23 16 11 8 9 6 4 6 7 10 18 11 2 7 12 13 10 13 20
11 11 10 11 9 8 8 8 10 8 9 12 16 21 25 20 20 21 17 20 20 28 21 20 17 19 17 18 16 16 8 7 5 7 12 4 4 9 4 9 15 10 12 16
9 11 13 14 13 12 9 11 10 7 5 15 21 27 28 35 36 29 30 37 36 17 10 11 12 7 7 11 13 14 14 9 4 4 5 15 7 3 3 4 10 3 11 14
9 11 12 13 15 17 15 14 12 10 10 17 30 26 28 17 19 20 36 37 32 19 6 11 18 14 11 6 6 2 10 11 7 3 4 4 5 3 2 2 4 6 10 12
12 10 11 14 13 13 13 18 16 17 15 41 29 20 19 27 27 15 20 27 14 16 6 7 13 15 4 7 10 8 7 8 13 10 5 8 6 4 2 4 4 12 12 12
16 15 14 14 16 15 16 20 17 22 22 50 37 35 29 23 21 13 8 8 10 7 7 10 11 12 10 8 7 9 11 10 6 7 6 8 5 4 3 10 19 14 12 9
19 18 17 15 17 17 19 24 20 22 30 39 33 39 42 47 42 31 17 11 6 15 7 10 8 10 4 11 6 8 7 5 5 9 6 4 7 3 9 10 13 11 8 7
19 19 21 17 19 20 21 25 24 24 29 39 42 37 44 40 49 37 19 11 13 9 18 9 6 7 7 6 7 7 7 7 3 2 5 9 10 6 6 9 9 7 6 7
23 22 24 24 22 22 23 28 29 24 18 10 12 23 26 35 39 34 40 26 21 22 14 14 5 5 6 3 1 7 2 12 8 5 10 11 5 7 4 12 7 5 6 8
23 23 26 28 26 25 27 34 41 36 30 7 7 17 30 30 35 34 35 27 24 10 5 6 7 2 3 1 1 4 9 6 6 3 5 1 5 4 10 9 6 4 5 6
24 25 26 28 27 24 26 16 4 11 36 12 5 8 14 29 34 32 30 28 15 13 10 9 4 5 3 3 3 4 14 8 9 2 4 4 4 8 5 4 6 5 4 4
26 27 26 28 28 25 24 15 13 14 23 9 4 3 6 18 21 18 18 22 8 11 11 7 4 4 3 2 4 1 5 9 8 10 8 6 5 2 8 10 7 5 5 4
25 29 28 30 32 34 41 42 35 24 27 13 3 2 4 17 7 6 11 9 10 5 3 3 3 3 2 4 8 14 7 7 8 9 10 10 9 10 9 10 8 7 5 6
24 26 27 33 25 12 13 12 18 23 21 4 5 7 4 13 5 6 6 6 3 3 3 3 5 4 5 7 11 10 11 7 6 8 11 11 12 12 13 13 13 11 9 8
21 21 11 7 7 13 21 14 6 13 14 9 3 6 4 10 5 3 5 3 3 3 3 6 4 6 17 11 10 8 10 12 11 8 7 7 9 9 10 10 10 12 11 9
14 7 7 17 19 22 6 6 6 9 4 10 5 6 5 5 3 3 1 3 4 4 4 5 4 4 8 14 20 17 14 12 12 12 13 14 15 15 15 14 13 11 11 12
9 10 20 19 6 7 6 4 4 5 4 6 8 8 7 7 5 3 3 2 2 4 8 5 4 3 7 7 8 9 10 12 12 13 12 12 12 11 12 12 12 12 11 12
12 6 5 6 6 6 5 5 4 3 4 7 10 6 7 6 4 3 3 5 3 10 4 4 4 6 6 4 4 6 7 7 7 6 6 8 8 8 6 5 6 8 9 12
5 6 6 5 5 5 1 3 5 6 1 15 18 6 3 5 3 2 4 3 4 5 6 5 3 7 4 3 4 5 4 3 3 2 2 3 4 5 5 4 4 5 7 9
5 7 4 5 4 5 8 12 8 8 10 20 9 5 4 2 4 2 4 4 5 5 4 2 6 6 6 5 5 5 5 5 4 3 3 2 2 1 2 3 3 4 6 7
5 7 5 4 6 3 8 10 11 8 13 13 3 2 4 3 4 5 5 6 6 3 3 9 10 9 9 8 7 6 7 7 7 6 6 7 7 6 6 6 5 5 6 6
5 3 6 6 10 9 8 11 9 8 8 3 2 5 2 3 3 5 2 1 2 12 14 13 12 12 12 12 12 11 11 11 11 11 11 11 11 10 9 8 9 8 8 8
Wind_Direction
230 237 246 248 241 232 210 213 219 202 200 178 205 229 248 259 249 234 262 285 279 276 259 254 259 253 226 183 177 222 217 289 287 286 288 302 264 272 286 288 300 294 285 284
266 252 241 239 237 225 212 218 232 208 205 231 215 267 254 256 234 228 217 244 231 255 254 259 234 252 276 208 213 260 159 238 301 304 164 167 240 272 282 280 278 273 288 286
330 271 239 229 225 223 208 203 212 183 201 242 270 234 238 236 223 250 249 258 255 231 236 238 272 257 255 220 226 233 271 252 250 266 288 304 297 297 295 287 272 280 276 292
329 281 255 227 216 223 210 223 231 203 216 221 249 231 244 242 231 230 255 258 233 224 251 248 252 258 259 228 220 205 240 266 267 274 284 289 285 286 290 277 267 269 287 303
312 316 294 243 225 221 215 235 186 218 291 241 225 221 233 248 237 223 235 238 254 238 246 248 274 243 241 241 179 202 223 265 299 290 281 273 285 282 277 272 274 278 294 300
283 275 270 254 237 226 240 249 251 242 239 249 222 229 253 260 251 257 253 260 261 262 265 271 273 284 269 272 224 211 222 259 300 270 326 307 282 259 268 283 288 286 307 312
272 273 266 264 248 238 269 276 292 253 252 236 251 257 260 256 237 245 252 260 262 263 288 301 270 262 256 254 241 240 235 242 257 284 309 258 32 302 262 275 286 268 312 317
315 296 277 268 267 268 278 282 290 288 279 275 266 270 263 262 260 249 252 253 248 273 282 270 262 231 246 236 230 227 226 227 263 266 293 284 275 181 305 320 300 150 323 322
294 300 297 288 273 269 275 271 261 263 280 255 260 270 267 264 256 253 254 249 251 234 217 247 242 238 233 187 174 196 207 225 222 196 266 273 36 129 316 251 251 350 330 329
294 287 292 297 291 287 282 268 256 255 267 269 260 253 265 269 250 253 264 243 207 211 204 240 232 234 244 206 183 166 170 196 217 231 258 278 289 61 148 267 24 346 338 333
290 292 290 282 286 291 286 281 263 253 259 270 264 256 254 254 229 217 194 199 192 173 212 220 221 234 217 236 172 170 176 171 189 198 219 265 173 141 256 334 312 312 319 332
283 286 284 288 285 289 287 285 276 269 259 263 270 263 258 238 237 234 226 224 199 204 197 220 210 236 218 229 221 190 210 221 187 200 215 131 171 272 296 313 311 314 306 325
277 279 285 277 283 284 284 288 285 275 277 284 260 250 264 247 232 225 201 215 206 236 234 270 210 241 192 202 227 189 224 205 238 176 211 236 263 242 274 318 320 291 305 312
275 278 281 280 278 285 290 286 285 267 269 270 268 248 239 220 219 221 229 233 214 227 263 259 215 232 202 225 7 224 99 156 206 251 278 260 287 200 276 318 324 298 300 315
279 276 279 284 287 290 290 289 284 265 230 286 294 240 220 217 219 220 216 217 212 193 218 241 226 143 183 156 259 228 189 180 191 226 142 76 118 168 302 311 313 288 286 310
282 282 281 285 289 295 301 308 359 336 232 233 230 224 219 209 207 209 207 218 216 201 212 228 193 208 226 211 229 253 207 222 233 267 187 189 261 299 295 317 311 312 277 283
280 283 281 285 290 286 270 244 254 301 312 269 243 200 189 188 181 183 192 200 195 220 215 211 168 180 207 231 232 195 216 224 221 232 234 274 251 253 284 294 292 302 282 276
277 281 284 288 290 284 275 274 283 282 267 241 241 116 159 169 155 143 159 176 196 228 190 149 180 156 200 249 236 248 225 214 216 223 228 231 262 275 280 291 288 275 264 257
276 284 292 295 286 258 253 265 249 272 216 247 197 172 170 171 147 136 142 169 178 202 192 194 176 186 219 229 234 232 211 216 220 229 244 251 263 277 286 281 266 262 258 247
276 285 286 257 231 254 287 293 215 206 202 227 227 123 149 171 148 122 124 206 143 176 187 141 218 244 233 237 241 218 215 218 228 242 259 256 260 268 271 278 271 252 246 243
269 248 243 260 281 301 245 252 217 195 201 188 175 153 139 162 152 131 201 163 164 182 173 198 218 252 223 212 221 232 227 228 239 250 261 270 274 278 278 271 257 256 246 238
242 277 286 288 248 234 242 226 237 215 195 148 157 147 135 121 131 126 210 132 174 191 141 189 236 222 146 173 196 220 226 231 240 254 262 267 272 276 280 273 250 245 250 229
270 265 245 216 217 236 224 231 220 186 155 161 158 134 133 131 142 114 165 167 157 123 178 226 243 143 151 166 189 199 209 217 227 238 259 268 268 268 274 262 238 243 237 218
223 239 235 222 210 231 278 323 310 341 194 155 146 125 126 140 143 138 147 96 150 207 211 223 151 160 143 158 177 173 181 187 189 191 249 265 259 247 244 247 242 225 203 200
240 250 243 236 332 298 276 287 283 276 190 159 141 99 142 142 130 147 121 161 217 222 220 99 130 135 131 130 134 136 146 144 132 128 102 75 77 146 193 187 175 172 178 184
238 249 269 299 285 309 338 318 294 262 175 155 140 156 171 148 140 167 189 182 211 161 105 121 125 119 118 114 115 123 127 122 119 113 103 95 90 89 97 109 123 135 146 155
243 256 296 296 287 286 304 313 298 319 192 183 179 185 118 119 167 169 187 227 89 123 114 108 111 119 122 121 109 111 112 111 109 105 101 98 94 91 90 97 100 109 120 130
Height
1515 1516 1516 1518 1520 1521 1523 1525 1527 1525 1529 1534 1529 1524 1517 1519 1517 1520 1520 1517 1511 1507 1506 1505 1505 1499 1496 1502 1504 1504 1501 1498 1494 1483 1473 1475 1476 1476 1474 1485 1469 1465 1459 1421
1513 1513 1514 1516 1518 1519 1521 1524 1524 1523 1525 1520 1519 1519 1514 1515 1515 1515 1513 1512 1510 1507 1507 1509 1497 1498 1498 1501 1503 1500 1498 1496 1494 1471 1473 1474 1472 1467 1468 1469 1472 1462 1458 1420
1511 1511 1512 1513 1515 1516 1519 1521 1519 1521 1519 1517 1514 1512 1513 1514 1514 1513 1511 1508 1508 1509 1506 1504 1497 1499 1498 1499 1500 1500 1503 1495 1493 1485 1472 1471 1469 1464 1465 1465 1466 1450 1435 1416
1511 1510 1511 1511 1513 1513 1516 1514 1512 1512 1511 1513 1516 1515 1512 1508 1512 1512 1509 1507 1505 1504 1502 1496 1495 1495 1494 1496 1498 1499 1500 1490 1486 1479 1473 1470 1467 1462 1457 1459 1450 1448 1425 1422
1510 1510 1509 1510 1510 1511 1512 1509 1510 1511 1510 1510 1512 1510 1506 1507 1507 1514 1505 1505 1502 1500 1495 1494 1491 1491 1492 1486 1494 1494 1495 1489 1484 1478 1466 1462 1461 1453 1450 1445 1440 1434 1430 1422
1509 1508 1508 1509 1508 1509 1509 1509 1507 1508 1505 1505 1506 1503 1503 1502 1505 1502 1501 1500 1501 1494 1494 1494 1491 1488 1487 1486 1486 1490 1491 1490 1486 1473 1462 1460 1445 1439 1441 1438 1433 1431 1432 1422
1507 1506 1506 1506 1506 1507 1506 1506 1506 1504 1496 1499 1495 1495 1497 1496 1500 1500 1499 1497 1494 1496 1496 1493 1489 1486 1486 1485 1483 1484 1484 1489 1489 1478 1464 1454 1439 1437 1440 1438 1430 1428 1429 1424
1503 1503 1503 1504 1504 1504 1505 1505 1505 1503 1495 1494 1490 1490 1489 1490 1490 1487 1492 1488 1490 1495 1496 1494 1482 1478 1479 1472 1477 1478 1482 1483 1483 1480 1466 1446 1431 1438 1439 1438 1427 1425 1428 1423
1501 1500 1500 1499 1499 1500 1500 1501 1502 1502 1497 1481 1488 1488 1484 1481 1478 1480 1476 1482 1487 1491 1492 1491 1475 1465 1458 1467 1479 1481 1481 1480 1480 1473 1474 1451 1432 1438 1440 1440 1428 1428 1426 1422
1498 1497 1497 1496 1495 1496 1496 1496 1497 1497 1490 1470 1481 1477 1474 1475 1471 1467 1468 1472 1478 1483 1484 1481 1463 1456 1449 1453 1456 1476 1479 1480 1476 1473 1469 1449 1431 1437 1439 1435 1428 1426 1424 1422
1493 1493 1492 1491 1491 1491 1491 1489 1491 1490 1483 1457 1469 1468 1464 1463 1462 1462 1464 1470 1467 1475 1473 1467 1452 1445 1443 1443 1437 1451 1455 1460 1465 1462 1465 1457 1431 1437 1436 1429 1426 1425 1423 1422
1488 1487 1487 1486 1485 1485 1486 1483 1483 1481 1475 1451 1454 1452 1447 1451 1453 1456 1456 1453 1460 1459 1457 1448 1442 1439 1437 1435 1433 1440 1443 1433 1438 1439 1435 1428 1429 1431 1431 1430 1428 1424 1422 1422
1481 1480 1480 1479 1479 1479 1479 1474 1474 1472 1464 1443 1435 1426 1425 1431 1439 1444 1449 1447 1448 1450 1449 1436 1431 1435 1435 1431 1428 1430 1434 1433 1433 1434 1420 1426 1426 1429 1429 1428 1426 1423 1421 1420
1475 1474 1473 1471 1471 1471 1469 1466 1466 1465 1459 1442 1422 1417 1417 1422 1427 1432 1437 1441 1442 1446 1447 1440 1429 1430 1430 1421 1424 1423 1427 1431 1428 1427 1422 1424 1424 1425 1426 1425 1424 1422 1420 1418
1467 1466 1465 1462 1461 1461 1460 1454 1447 1448 1452 1431 1419 1415 1414 1416 1421 1426 1430 1432 1434 1437 1440 1435 1426 1427 1428 1429 1430 1423 1423 1421 1422 1416 1416 1419 1422 1424 1424 1422 1421 1421 1419 1419
1459 1457 1456 1454 1454 1454 1452 1441 1433 1429 1428 1432 1420 1410 1408 1409 1413 1418 1422 1426 1428 1431 1432 1427 1424 1423 1424 1422 1417 1412 1414 1415 1416 1416 1418 1419 1420 1421 1421 1421 1420 1419 1418 1418
1451 1449 1447 1446 1445 1446 1446 1436 1428 1428 1431 1426 1410 1402 1404 1406 1409 1413 1419 1421 1423 1427 1424 1421 1419 1422 1421 1420 1415 1410 1411 1413 1414 1416 1417 1418 1418 1420 1420 1419 1419 1418 1417 1417
1443 1441 1438 1436 1433 1431 1423 1418 1418 1421 1426 1421 1402 1400 1404 1404 1405 1410 1413 1416 1420 1419 1417 1417 1417 1421 1420 1415 1408 1408 1409 1411 1412 1413 1414 1415 1416 1417 1418 1418 1417 1416 1416 1416
1435 1434 1431 1426 1420 1416 1411 1411 1411 1410 1411 1401 1394 1394 1395 1401 1403 1405 1409 1412 1415 1416 1413 1414 1417 1411 1411 1404 1403 1404 1407 1409 1410 1411 1411 1412 1413 1414 1414 1414 1414 1414 1414 1415
1429 1429 1427 1418 1411 1408 1407 1399 1399 1397 1394 1394 1385 1385 1389 1396 1396 1401 1406 1407 1408 1411 1411 1413 1412 1401 1401 1401 1402 1403 1404 1406 1407 1409 1409 1409 1409 1411 1411 1411 1411 1411 1411 1412
1423 1421 1417 1411 1408 1406 1400 1394 1388 1383 1381 1379 1380 1380 1384 1391 1393 1398 1400 1402 1404 1404 1405 1408 1406 1399 1393 1395 1398 1398 1401 1403 1404 1405 1405 1405 1406 1406 1406 1407 1408 1408 1408 1409
1417 1416 1412 1407 1403 1398 1394 1381 1375 1370 1365 1371 1373 1379 1383 1388 1392 1395 1400 1398 1403 1396 1407 1406 1400 1388 1391 1393 1394 1395 1397 1399 1400 1400 1401 1401 1402 1402 1402 1402 1403 1404 1405 1406
1413 1412 1407 1400 1394 1388 1380 1370 1362 1361 1364 1366 1369 1374 1380 1386 1390 1393 1395 1396 1397 1403 1404 1398 1386 1387 1390 1391 1392 1394 1395 1396 1397 1397 1397 1399 1399 1399 1400 1399 1400 1401 1402 1403
1410 1406 1392 1387 1378 1373 1371 1371 1369 1365 1363 1363 1366 1371 1375 1381 1384 1388 1387 1397 1401 1399 1394 1386 1382 1387 1388 1389 1391 1393 1393 1394 1395 1396 1397 1397 1397 1397 1398 1398 1399 1399 1400 1402
1406 1397 1384 1377 1374 1373 1371 1369 1367 1364 1362 1364 1367 1370 1373 1375 1380 1383 1391 1395 1387 1382 1374 1377 1383 1386 1388 1390 1391 1392 1394 1395 1395 1396 1396 1397 1397 1397 1397 1397 1398 1399 1400 1402
1401 1390 1381 1377 1375 1370 1370 1368 1364 1362 1362 1364 1365 1366 1366 1368 1370 1375 1374 1378 1373 1372 1379 1383 1385 1387 1389 1391 1392 1394 1394 1395 1396 1397 1397 1398 1397 1398 1398 1398 1399 1400 1401 1403
1390 1383 1381 1380 1378 1373 1371 1369 1365 1362 1362 1360 1362 1360 1360 1368 1365 1368 1371 1370 1376 1379 1383 1385 1388 1390 1392 1394 1395 1395 1396 1396 1397 1398 1399 1399 1400 1400 1401 1401 1401 1402 1403 1405